Dewpoint
21 17 14 14 15 15 16 17 18 20 22 19 19 24 34 36 35 36 40 40 40 42 47 49 52 53 56 57 56 55 55 55 56 57 56 56 56 57 58 60 61 62 63 63
18 17 17 19 17 19 19 19 19 20 22 20 24 27 33 37 36 36 37 36 39 42 44 46 48 50 55 56 55 55 55 55 54 56 56 55 55 56 57 58 59 61 63 62
17 17 19 19 20 19 20 18 20 19 24 24 20 24 30 34 37 37 39 40 40 41 43 44 46 48 48 49 51 55 55 54 54 54 55 54 55 55 55 55 58 60 62 62
18 17 18 19 19 19 16 21 22 22 20 17 20 14 26 33 35 38 39 39 40 40 41 42 44 46 48 48 50 51 52 53 53 53 53 51 51 51 53 55 57 59 60 62
20 18 19 19 21 20 21 24 22 22 19 19 19 17 23 30 31 36 39 40 40 41 42 43 44 46 48 49 47 48 48 48 52 51 52 52 49 51 53 54 55 57 59 60
26 28 20 22 25 24 25 21 22 23 21 17 18 17 17 26 28 35 39 41 40 41 43 45 46 45 46 48 49 49 46 46 49 50 52 52 50 50 51 53 54 55 56 57
28 28 28 25 23 25 21 21 18 16 17 14 21 18 18 27 31 36 38 39 40 41 42 43 44 44 44 45 47 49 48 48 49 49 51 52 52 50 51 52 54 54 54 54
26 24 26 27 25 23 20 19 18 14 16 17 20 17 22 29 34 38 40 40 41 41 42 44 45 43 43 45 47 48 48 48 48 47 47 50 50 51 52 52 53 54 52 52
24 25 30 31 25 25 24 20 22 20 21 19 19 22 24 34 37 39 40 40 39 39 39 40 42 43 44 46 46 48 46 46 45 45 45 45 47 48 50 51 53 52 51 52
30 22 28 33 31 27 22 24 21 23 19 17 18 19 20 30 34 36 39 39 38 38 40 40 41 44 46 47 46 45 44 44 44 44 44 45 46 47 48 50 53 50 49 49
32 25 25 26 23 24 21 21 22 23 23 16 17 19 24 25 29 35 39 40 39 38 40 41 42 44 45 45 42 43 43 43 43 43 44 44 45 46 47 48 51 49 48 48
34 30 25 21 26 28 25 25 25 24 20 22 23 22 34 35 37 39 39 39 39 37 38 39 41 42 41 40 41 41 43 43 43 43 44 44 44 46 46 46 51 50 48 48
28 22 21 20 17 28 29 29 27 25 25 21 19 20 36 36 36 36 35 34 36 37 38 38 39 39 39 39 40 42 42 43 44 43 42 42 44 46 48 51 49 49 47 47
34 23 22 20 17 31 30 32 31 27 21 24 24 25 35 35 35 35 35 36 36 37 38 38 39 38 39 40 40 41 42 44 44 43 42 43 46 47 50 49 48 47 47 47
30 25 26 27 28 34 32 30 29 27 26 24 25 30 34 35 36 36 36 37 38 38 39 39 39 39 40 40 41 42 43 43 44 43 43 44 49 50 48 47 47 47 47 46
35 27 32 32 33 33 30 30 29 28 29 33 35 34 37 37 37 36 36 38 38 39 40 40 39 39 39 41 41 41 42 43 45 43 44 48 48 47 46 46 45 45 45 44
34 32 29 26 32 30 24 27 27 33 37 32 32 34 37 36 36 36 36 39 39 39 40 39 39 39 41 41 39 41 43 45 46 45 46 47 46 44 45 45 44 44 44 44
32 30 29 23 25 14 19 30 35 36 37 37 36 36 36 36 37 38 38 39 39 39 39 39 39 40 40 39 41 43 44 45 45 46 46 45 44 44 44 44 43 44 44 44
34 32 27 23 18 25 32 35 34 32 32 37 35 36 36 37 38 36 39 40 40 40 39 40 40 40 39 41 42 43 45 45 46 45 44 44 43 43 43 43 43 43 42 43
35 33 29 25 22 25 28 37 37 35 29 37 37 36 37 38 34 35 38 41 40 39 39 39 40 40 40 41 43 44 44 45 44 43 43 43 43 43 42 42 43 43 42 43
32 32 28 30 29 34 37 38 36 30 30 36 38 38 38 36 38 39 41 40 40 40 39 39 40 39 39 41 42 43 44 43 44 43 43 44 43 43 43 44 44 44 44 44
32 30 32 34 32 30 39 35 32 33 34 37 38 38 38 39 40 40 40 40 39 37 37 39 39 39 41 42 43 42 43 44 44 44 43 43 44 44 44 44 45 45 44 44
27 32 30 33 32 36 37 36 36 37 37 37 37 39 38 38 38 39 38 37 37 37 37 39 39 41 42 42 43 43 43 44 44 43 43 42 41 42 42 42 42 40 41 40
30 34 30 30 32 35 36 37 39 39 38 39 39 39 39 37 37 36 35 36 37 37 39 38 40 41 41 44 44 44 44 44 43 42 42 41 40 38 37 37 38 36 36 35
30 32 31 30 32 34 35 37 39 40 39 39 39 38 37 36 35 35 36 38 39 38 37 39 41 42 43 43 43 44 44 43 42 42 41 40 39 37 35 35 35 34 34 36
32 31 30 30 32 34 35 38 40 38 37 37 36 35 36 36 36 38 38 39 39 39 40 41 42 43 43 43 43 44 44 42 38 37 38 37 35 35 35 34 33 35 36 36
Lifted_Index
5 5 5 5 5 5 4 4 4 4 5 5 5 5 5 5 5 5 5 5 4 4 4 4 4 3 2 2 3 3 3 3 4 4 4 3 3 2 2 1 0 -0 -0 -0
5 5 5 5 5 5 4 4 4 4 4 5 5 5 5 5 5 5 4 4 4 4 4 4 4 3 2 2 2 2 2 3 3 4 3 3 3 2 2 1 0 -0 -1 -0
5 5 5 5 5 5 4 4 4 4 4 4 4 4 4 5 5 4 4 4 4 4 4 4 4 3 3 3 2 2 3 3 3 3 3 4 4 3 2 1 0 -1 -1 -1
5 5 5 5 5 4 4 4 4 4 3 3 3 3 4 5 5 4 4 3 3 3 3 3 3 3 3 3 4 4 4 4 4 3 3 4 4 4 2 1 0 -1 -1 -1
4 4 4 4 4 4 5 5 4 4 3 3 3 3 4 5 5 4 4 3 3 3 3 3 3 3 4 4 5 5 5 4 4 3 3 3 4 4 3 2 1 -0 -1 -1
4 4 4 4 4 4 4 4 4 3 3 2 3 3 4 5 5 4 4 4 3 3 3 3 3 3 4 4 5 5 4 4 3 3 2 3 3 3 3 2 1 0 -0 0
3 3 4 4 4 4 4 4 3 2 1 2 3 3 4 5 5 5 4 4 4 4 4 4 3 3 4 4 4 4 3 3 3 3 3 3 3 3 3 2 1 1 1 1
3 3 3 4 4 4 4 4 3 2 2 2 3 4 4 5 5 5 4 4 4 4 4 3 3 3 4 4 4 3 3 3 3 3 4 4 4 4 3 3 2 1 2 2
3 3 3 4 4 4 4 4 4 3 2 2 3 4 4 5 5 5 4 4 4 4 3 3 3 3 4 4 4 4 4 4 4 4 5 5 5 5 5 4 3 2 2 2
3 3 3 4 4 4 5 5 4 4 3 2 2 4 4 4 4 4 4 4 3 3 3 3 4 3 4 4 4 4 5 5 5 6 6 6 6 6 6 5 4 2 2 2
3 3 3 3 4 4 5 5 4 4 3 2 2 3 4 4 4 4 3 3 3 3 3 4 4 4 4 4 5 5 5 6 6 6 7 7 7 7 6 5 4 3 2 2
4 3 3 4 5 5 5 5 5 4 4 3 3 3 4 4 3 3 3 2 3 3 4 4 5 5 5 5 5 5 6 6 6 7 7 8 7 7 6 5 4 3 2 2
4 4 4 4 5 6 5 5 5 4 4 4 3 3 4 3 3 2 2 2 3 3 4 4 5 5 6 6 6 6 6 7 7 7 8 8 7 6 5 5 4 3 2 2
4 4 4 5 5 6 5 5 5 4 4 4 4 3 3 3 3 3 2 3 3 3 4 4 5 5 6 6 7 7 7 7 7 8 8 8 7 6 5 4 4 3 3 3
4 4 4 5 5 5 5 5 5 4 4 4 4 3 3 3 3 3 3 3 3 4 4 4 5 5 6 6 7 7 8 8 8 8 8 7 6 5 5 4 4 4 4 4
4 4 5 5 5 5 5 5 5 4 4 3 3 3 3 3 2 2 3 3 3 4 4 4 5 5 6 7 7 8 8 8 8 8 7 7 6 5 5 5 5 5 5 5
5 5 5 4 4 4 5 5 5 4 3 3 3 3 3 2 3 3 3 3 3 4 4 4 5 5 6 7 7 8 8 8 8 7 7 7 6 6 6 6 6 7 7 7
5 5 4 4 4 4 4 4 4 4 3 3 3 3 3 3 3 3 3 3 3 3 4 4 5 6 7 7 8 8 9 8 7 7 7 7 7 7 7 8 8 8 9 9
4 4 4 4 4 4 4 4 4 4 3 3 3 3 3 3 3 3 3 3 3 3 4 5 6 6 7 8 8 9 9 8 8 7 8 8 8 8 9 9 9 9 9 9
3 3 4 4 3 3 4 4 4 4 3 3 3 3 3 3 3 3 3 3 3 4 5 6 6 7 7 8 9 9 9 8 8 8 8 9 9 9 9 9 9 8 8 8
3 3 3 3 3 4 4 4 4 3 3 3 3 3 3 3 3 3 3 3 4 5 6 7 7 7 7 8 9 9 8 8 8 9 9 9 9 9 9 8 8 8 8 8
4 4 4 4 4 4 4 4 3 3 3 3 3 3 3 3 3 3 4 5 6 7 8 9 8 8 8 8 9 8 8 8 9 9 9 9 9 8 8 8 8 7 7 7
4 4 4 4 4 4 4 4 3 3 3 3 3 3 3 3 4 5 5 6 7 9 9 9 8 8 8 8 8 8 8 9 9 9 9 9 8 8 8 8 7 7 7 7
5 5 5 5 4 4 4 3 3 3 3 3 3 3 4 4 5 6 6 7 9 10 10 9 8 8 7 8 8 8 9 9 10 10 9 9 8 8 8 8 7 7 6 6
6 6 6 5 4 4 3 3 3 3 3 3 3 4 5 5 6 6 7 8 9 10 10 9 8 8 7 8 8 9 10 10 10 10 10 9 9 8 8 8 7 6 5 5
7 6 5 4 4 4 4 3 3 3 3 3 3 4 5 6 6 6 7 8 9 9 9 8 8 8 8 8 9 9 10 10 10 10 10 10 9 9 8 8 7 5 4 4